Lafayette, IN

11:13 PM EDT on September 19, 2017 (GMT -0400)
Purdue Univ

Weather History for KLAF - May, 2013

Change the Weather History Date:

Friday, May 24, 2013

  Actual Average Record
Temperature  
Mean Temperature 50 °F 65 °F  
Max Temperature 66 °F 76 °F 89 °F (1972)
Min Temperature 34 °F 53 °F 34 °F (2013)
Degree Days  
Heating Degree Days 15 3  
Month to date heating degree days 108 141  
Since 1 July heating degree days 5865 5631  
Cooling Degree Days 0 3  
Month to date cooling degree days 61 41  
Year to date cooling degree days 64 54  
Moisture  
Dew Point 36 °F    
Average Humidity 63    
Maximum Humidity 92    
Minimum Humidity 34    
Precipitation  
Precipitation 0.00 in 0.14 in 2.22 in (1953)
Month to date precipitation 0.99 3.21  
Year to date precipitation 16.54 13.04  
Sea Level Pressure  
Sea Level Pressure 30.32 in    
Wind  
Wind Speed 6 mph (North)    
Max Wind Speed 15 mph    
Max Gust Speed 21 mph    
Visibility 10 miles    
Events      
T = Trace of Precipitation, MM = Missing Value Source: NWS Daily Summary

Daily Weather History Graph

Daily Weather History Graph

Search for Another Location

Airport or City:

Trip Planner

Search our weather history database for the weather conditions in past years. The results will help you decide how hot, cold, wet, or windy it might be!

Date:

Astronomy

May. 24, 2013 Rise Set
Actual Time 6:24 AM EDT 9:05 PM EDT
Civil Twilight 5:52 AM EDT 9:37 PM EDT
Nautical Twilight 5:12 AM EDT 10:17 PM EDT
Astronomical Twilight 4:27 AM EDT 11:02 PM EDT
Moon 8:47 PM EDT (5/24) 5:55 AM EDT (5/24)
Length of Visible Light 15h 45m
Length of Day
14h 41m
Full, 100% of the Moon is Illuminated
May 24
Full
May 25
Full
May 31
Last Quarter
Jun 8
New
Jun 16
First Quarter

Hourly Weather History & Observations

Time (EDT) Temp. Windchill Dew Point Humidity Pressure Visibility Wind Dir Wind Speed Gust Speed Precip Events Conditions
12:54 AM 41.0 °F 35.8 °F 33.1 °F 73% 30.24 in 10.0 mi North 8.1 mph - N/A   Clear
1:54 AM 39.9 °F 33.9 °F 34.0 °F 79% 30.25 in 10.0 mi North 9.2 mph 17.3 mph N/A   Scattered Clouds
2:01 AM 39.2 °F 32.0 °F 33.8 °F 81% 30.23 in 10.0 mi North 11.5 mph - N/A   Mostly Cloudy
2:09 AM 39.2 °F 30.8 °F 33.8 °F 81% 30.24 in 10.0 mi North 15.0 mph 18.4 mph N/A   Scattered Clouds
2:54 AM 39.0 °F 33.4 °F 35.1 °F 86% 30.26 in 10.0 mi NNW 8.1 mph - N/A   Clear
3:54 AM 37.0 °F 34.5 °F 35.1 °F 93% 30.27 in 10.0 mi WSW 3.5 mph - N/A   Clear
4:54 AM 35.1 °F - 33.1 °F 92% 30.30 in 10.0 mi Calm Calm - N/A   Clear
5:54 AM 36.0 °F - 34.0 °F 93% 30.30 in 10.0 mi Calm Calm - N/A   Clear
6:54 AM 37.0 °F 32.4 °F 35.1 °F 93% 30.34 in 10.0 mi NNW 5.8 mph - N/A   Clear
7:54 AM 42.1 °F 37.1 °F 37.9 °F 85% 30.35 in 10.0 mi North 8.1 mph - N/A   Clear
8:54 AM 46.0 °F 43.1 °F 37.9 °F 73% 30.36 in 10.0 mi North 5.8 mph - N/A   Clear
9:54 AM 50.0 °F - 39.0 °F 66% 30.39 in 10.0 mi North 6.9 mph - N/A   Clear
10:54 AM 51.1 °F - 37.9 °F 61% 30.39 in 10.0 mi NNE 11.5 mph - N/A   Clear
11:54 AM 55.9 °F - 37.9 °F 51% 30.40 in 10.0 mi North 11.5 mph 18.4 mph N/A   Clear
12:54 PM 57.9 °F - 37.0 °F 46% 30.39 in 10.0 mi NNW 5.8 mph 17.3 mph N/A   Clear
1:54 PM 59.0 °F - 36.0 °F 42% 30.38 in 10.0 mi Variable 5.8 mph - N/A   Clear
2:54 PM 63.0 °F - 37.9 °F 40% 30.38 in 10.0 mi Variable 4.6 mph 17.3 mph N/A   Clear
3:54 PM 64.0 °F - 37.0 °F 37% 30.35 in 10.0 mi North 9.2 mph - N/A   Clear
4:54 PM 64.9 °F - 36.0 °F 34% 30.34 in 10.0 mi NNE 8.1 mph - N/A   Clear
5:54 PM 64.9 °F - 36.0 °F 34% 30.32 in 10.0 mi NNE 8.1 mph - N/A   Clear
6:54 PM 64.0 °F - 35.1 °F 34% 30.30 in 10.0 mi NNE 5.8 mph - N/A   Clear
7:54 PM 62.1 °F - 34.0 °F 35% 30.29 in 10.0 mi NNE 4.6 mph - N/A   Clear
8:54 PM 57.0 °F - 36.0 °F 45% 30.30 in 10.0 mi North 3.5 mph - N/A   Clear
9:54 PM 52.0 °F - 36.0 °F 54% 30.31 in 10.0 mi NNW 6.9 mph - N/A   Clear
10:54 PM 52.0 °F - 34.0 °F 50% 30.33 in 10.0 mi North 8.1 mph - N/A   Clear
11:54 PM 48.9 °F - 34.0 °F 56% 30.35 in 10.0 mi NNE 6.9 mph - N/A   Clear